#timestamp,LO_Frequency,Hit,StdDev 
1459774815.4,286046995.2,N
1459774835.3,286046991.7,N
1459774855.1,286046988.6,N
1459774856.0,286046988.6,N
1459774875.8,286046987.2,N
1459774895.6,286046987.1,N
1459774915.5,286046990.7,N
1459774935.3,286046992.3,N
1459774955.1,286046997.3,N
1459774975.9,286047002.4,N
1459774995.7,286046999.8,N
1459775015.5,286047000.0,N
1459775035.4,286047004.2,N
1459775055.2,286047003.0,N
1459775075.0,286047003.5,N
1459775075.9,286047003.5,N
1459775095.8,286047003.4,N
1459775115.6,286047003.1,N
1459775135.4,286047001.3,N
1459775155.3,286047000.1,N
1459775175.1,286047001.2,N
1459775176.0,286047001.2,N
1459775195.8,286046998.2,N
1459775215.6,286046995.6,N
1459775235.5,286046995.7,N
1459775255.3,286046995.2,N
1459775275.1,286046995.0,N
1459775295.9,286046995.0,N
1459775315.7,286046997.4,N
1459775335.5,286046993.7,N
1459775355.4,286046996.3,N
1459775375.2,286046993.8,N
1459775395.0,286046992.1,N
1459775395.9,286046992.1,N
1459775415.8,286046993.9,N
1459775435.6,286046995.5,N
1459775455.4,286046997.6,N
1459775475.3,286046992.4,N
1459775495.1,286046992.4,N
1459775496.0,286046992.4,N
1459775515.8,286046996.1,N
1459775535.7,286046997.3,N
1459775555.5,286046998.2,N
1459775575.3,286047003.0,N
1459775595.1,286047002.9,N
1459775615.9,286046999.7,N
1459775635.7,286047004.4,N
1459775655.5,286046999.9,N
1459775675.4,286047002.4,N
1459775695.2,286047001.2,N
1459775715.0,286047002.8,N
1459775715.9,286047002.8,N
1459775735.8,286046999.7,N
1459775755.6,286047003.0,N
1459775775.4,286047005.3,N
1459775795.3,286047007.2,N
1459775815.1,286047008.6,N
1459775816.0,286047008.6,N
1459775835.8,286047005.1,N
1459775855.7,286047001.3,N
1459775875.5,286047000.4,N
1459775895.3,286047004.1,N
1459775915.2,286047002.0,N
1459775935.9,286047002.1,N
1459775955.7,286047000.9,N
1459775975.5,286047001.2,N
1459775995.4,286046999.1,N
1459776015.2,286047002.8,N
1459776035.0,286047003.3,N
1459776035.9,286047003.3,N
1459776055.8,286047003.4,N
1459776075.6,286047003.6,N
1459776095.4,286047008.4,Y
1459776115.3,286047002.9,P
1459776135.1,286047001.3,P
1459776155.8,286046998.7,N
1459776175.7,286046997.0,N
1459776195.5,286046997.2,N
1459776215.3,286046997.8,N
1459776235.2,286046997.5,N
1459776255.9,286046998.1,N
1459776275.7,286046993.4,N
1459776295.6,286046991.0,Y
1459776315.4,286046990.1,P
1459776335.2,286046992.9,N
1459776355.1,286046992.7,N
1459776356.0,286046992.7,N
1459776375.8,286046995.6,N
1459776395.6,286046996.0,N
1459776415.5,286046995.6,N
1459776435.3,286046995.8,N
1459776455.1,286046995.4,N
1459776475.9,286046998.8,N
1459776495.7,286046995.7,N
1459776515.5,286046996.4,N
1459776535.4,286046992.1,Y
1459776555.2,286046999.2,P
1459776575.0,286046998.5,N
1459776575.9,286046998.5,N
1459776595.8,286047001.6,N
1459776615.6,286047005.8,N
1459776635.4,286047009.0,N
1459776655.2,286047008.0,N
1459776675.1,286047008.2,N
1459776676.0,286047008.2,N
1459776695.8,286047010.3,N
1459776715.6,286047010.4,N
1459776735.5,286047004.8,N
1459776755.3,286047005.0,N
1459776775.1,286047006.8,N
1459776795.9,286047009.1,N
1459776815.7,286047008.0,N
1459776835.5,286047007.4,N
1459776855.4,286047005.0,N
1459776875.2,286047005.8,N
1459776895.0,286047008.9,N
1459776895.9,286047008.9,N
1459776915.8,286047008.6,N
1459776935.6,286047008.8,N
1459776955.4,286047004.8,N
1459776975.3,286047006.2,N
1459776995.1,286047008.1,N
1459776996.0,286047008.1,N
1459777015.8,286047005.8,N
1459777035.6,286047008.9,N
1459777055.5,286047009.3,N
1459777075.3,286047007.1,N
1459777095.1,286047005.5,N
1459777115.9,286047004.6,N
1459777135.7,286047008.8,Y
1459777155.5,286046998.1,P
1459777175.4,286046999.3,N
1459777195.2,286047000.8,N
1459777215.0,286047000.4,N
1459777215.9,286047000.4,N
1459777235.8,286046999.7,N
1459777255.6,286047000.6,N
1459777275.4,286047000.2,N
1459777295.3,286047002.0,N
1459777315.1,286047005.7,N
1459777316.0,286047005.7,N
1459777335.8,286047002.5,N
1459777355.7,286047003.2,N
1459777375.5,286047005.2,N
1459777395.3,286047002.2,N
1459777415.2,286047002.4,N
1459777435.9,286047002.4,N
1459777455.7,286047005.0,N
1459777475.5,286047004.6,N
1459777495.4,286047003.5,N
1459777515.2,286047001.9,N
1459777535.0,286047004.6,N
1459777535.9,286047004.6,N
1459777555.8,286047007.1,Y
1459777575.6,286047005.2,P
1459777595.4,286047004.8,P
1459777615.3,286047005.0,P
1459777635.1,286047005.9,Y
1459777655.9,286046996.5,P
1459777675.7,286046998.9,N
1459777695.5,286046996.9,N
1459777715.3,286046997.3,N
1459777735.2,286046998.4,N
1459777755.0,286046996.9,N
1459777755.9,286046996.9,N
1459777775.7,286046996.8,N
1459777795.6,286046999.1,N
1459777815.4,286047001.7,N
1459777835.2,286047001.1,N
1459777855.1,286046996.5,N
1459777856.0,286046996.5,N
1459777875.8,286046996.8,N
1459777895.6,286046994.9,N
1459777915.5,286046994.2,N
1459777935.3,286046994.0,N
1459777955.1,286046999.2,N
1459777975.9,286047000.7,N
1459777995.7,286046996.2,N
1459778015.5,286046990.2,Y
1459778035.4,286046995.7,P
1459778055.2,286046999.2,N
1459778075.0,286046996.1,N
1459778075.9,286046996.1,N
1459778095.8,286046994.1,Y
1459778115.6,286046995.0,P
1459778135.4,286046997.0,P
1459778155.3,286046995.9,P
1459778175.1,286046996.6,Y
1459778176.0,286046996.6,P
1459778195.8,286047003.7,P
1459778215.7,286047005.5,N
1459778235.5,286047005.7,N
1459778255.3,286047005.6,N
1459778275.1,286047004.9,N
1459778295.9,286047008.9,N
1459778315.7,286047014.0,Y
1459778335.6,286047010.7,P
1459778355.4,286047006.8,N
1459778375.2,286047007.0,N
1459778395.1,286047008.4,Y
1459778396.0,286047008.4,P
